| time (UTC) | temp F | wind direction | speed knots | gust knots | rain 1hr in | rain 24hr in | rain mn in | humidity % | barometer mb |
| 20260502161525 | 83 | 25 | 10.4 | 18.2 | 0.00 | 0.00 | 0.00 | 14 | 998.4 |
| 20260502151517 | 80 | 338 | 10.4 | 16.5 | 0.00 | 0.00 | 0.00 | 14 | 998.3 |
| 20260502123055 | 66 | 78 | 0.0 | 1.7 | 0.00 | 0.00 | 0.00 | 23 | 997.0 |
| 20260502121553 | 62 | 167 | 0.0 | 0.9 | 0.00 | 0.00 | 0.00 | 27 | 996.9 |
| 20260502120104 | 61 | 160 | 0.0 | 1.7 | 0.00 | 0.00 | 0.00 | 33 | 996.7 |
| 20260502114615 | 63 | 219 | 0.0 | 3.5 | 0.00 | 0.00 | 0.00 | 29 | 996.6 |
| 20260502113046 | 73 | 286 | 0.0 | 4.3 | 0.00 | 0.00 | 0.00 | 16 | 996.4 |
| 20260502111545 | 70 | 318 | 0.0 | 1.7 | 0.00 | 0.00 | 0.00 | 17 | 996.4 |
| 20260502110044 | 70 | 275 | 0.9 | 4.3 | 0.00 | 0.00 | 0.00 | 18 | 996.4 |
| 20260502104545 | 69 | 323 | 1.7 | 6.1 | 0.00 | 0.00 | 0.00 | 20 | 996.5 |
| 20260502103042 | 66 | 291 | 0.0 | 3.5 | 0.00 | 0.00 | 0.00 | 22 | 996.4 |
| 20260502101559 | 67 | 249 | 0.0 | 1.7 | 0.00 | 0.00 | 0.00 | 22 | 996.4 |
| 20260502091532 | 71 | 156 | 0.0 | 1.7 | 0.00 | 0.00 | 0.00 | 21 | 996.5 |
| 20260502071519 | 76 | 31 | 0.9 | 4.3 | 0.00 | 0.00 | 0.00 | 15 | 996.4 |
| 20260502070018 | 74 | 58 | 0.0 | 0.0 | 0.00 | 0.00 | 0.00 | 20 | 996.3 |
| 20260502064531 | 73 | 63 | 0.0 | 2.6 | 0.00 | 0.00 | 0.00 | 18 | 996.2 |
| 20260502063020 | 76 | 315 | 0.0 | 1.7 | 0.00 | 0.00 | 0.00 | 20 | 996.1 |
| 20260502061512 | 80 | 317 | 0.0 | 4.3 | 0.00 | 0.00 | 0.00 | 13 | 995.9 |
| 20260502060028 | 81 | 313 | 2.6 | 7.8 | 0.00 | 0.00 | 0.00 | 12 | 995.7 |
| 20260502054512 | 82 | 19 | 5.2 | 7.8 | 0.00 | 0.00 | 0.00 | 13 | 995.6 |
| 20260502053011 | 83 | 30 | 6.1 | 12.2 | 0.00 | 0.00 | 0.00 | 12 | 995.4 |
| 20260502051511 | 80 | 42 | 6.1 | 8.7 | 0.00 | 0.00 | 0.00 | 13 | 995.3 |
| 20260502050016 | 79 | 317 | 0.0 | 6.1 | 0.00 | 0.00 | 0.00 | 16 | 995.3 |
| 20260502044511 | 80 | 298 | 0.0 | 2.6 | 0.00 | 0.00 | 0.00 | 16 | 995.0 |
| 20260502043009 | 82 | 325 | 0.0 | 6.1 | 0.00 | 0.00 | 0.00 | 15 | 994.9 |
| 20260502041509 | 83 | 336 | 0.0 | 1.7 | 0.00 | 0.00 | 0.00 | 15 | 994.8 |
| 20260502040008 | 84 | 109 | 0.0 | 5.2 | 0.00 | 0.00 | 0.00 | 12 | 994.6 |
| 20260502034508 | 85 | 71 | 0.9 | 5.2 | 0.00 | 0.00 | 0.00 | 12 | 994.5 |
| 20260502033009 | 85 | 24 | 4.3 | 7.8 | 0.00 | 0.00 | 0.00 | 12 | 994.3 |
| 20260502031506 | 86 | 52 | 4.3 | 7.8 | 0.00 | 0.00 | 0.00 | 13 | 994.0 |
| 20260502030006 | 86 | 339 | 6.1 | 12.2 | 0.00 | 0.00 | 0.00 | 13 | 993.7 |
| 20260502024511 | 87 | 43 | 8.7 | 13.0 | 0.00 | 0.00 | 0.00 | 12 | 993.7 |
| 20260502023004 | 87 | 325 | 7.0 | 13.0 | 0.00 | 0.00 | 0.00 | 12 | 993.5 |
| 20260502021503 | 88 | 36 | 8.7 | 16.5 | 0.00 | 0.00 | 0.00 | 12 | 993.3 |
| 20260502020004 | 89 | 9 | 7.0 | 13.9 | 0.00 | 0.00 | 0.00 | 12 | 993.2 |
| 20260502014502 | 90 | 332 | 7.8 | 12.2 | 0.00 | 0.00 | 0.00 | 12 | 993.0 |
| 20260502013002 | 90 | 340 | 12.2 | 19.1 | 0.00 | 0.00 | 0.00 | 12 | 992.9 |
| 20260502011501 | 90 | 333 | 13.0 | 22.6 | 0.00 | 0.00 | 0.00 | 12 | 992.8 |
| 20260502010111 | 91 | 343 | 12.2 | 19.1 | 0.00 | 0.00 | 0.00 | 12 | 992.7 |
| 20260502004559 | 91 | 12 | 9.6 | 18.2 | 0.00 | 0.00 | 0.00 | 12 | 992.8 |
| 20260502003058 | 91 | 32 | 10.4 | 16.5 | 0.00 | 0.00 | 0.00 | 12 | 992.8 |
| 20260502001557 | 91 | 333 | 9.6 | 20.0 | 0.00 | 0.00 | 0.00 | 13 | 992.8 |
| 20260502000057 | 91 | 26 | 12.2 | 20.9 | 0.00 | 0.00 | 0.00 | 12 | 992.8 |
| 20260501234555 | 91 | 41 | 13.9 | 21.7 | 0.00 | 0.00 | 0.00 | 12 | 992.9 |
| 20260501233103 | 90 | 15 | 13.0 | 21.7 | 0.00 | 0.00 | 0.00 | 12 | 992.8 |
| 20260501231604 | 91 | 338 | 8.7 | 18.2 | 0.00 | 0.00 | 0.00 | 13 | 993.0 |
| 20260501230053 | 91 | 14 | 12.2 | 20.0 | 0.00 | 0.00 | 0.00 | 12 | 993.2 |
| 20260501224553 | 90 | 5 | 12.2 | 17.4 | 0.00 | 0.00 | 0.00 | 12 | 993.3 |
| 20260501223052 | 91 | 15 | 11.3 | 18.2 | 0.00 | 0.00 | 0.00 | 13 | 993.5 |
| 20260501221552 | 91 | 14 | 13.9 | 23.5 | 0.00 | 0.00 | 0.00 | 12 | 993.7 |
| 20260501220105 | 90 | 345 | 12.2 | 19.1 | 0.00 | 0.00 | 0.00 | 12 | 993.9 |
| 20260501214551 | 91 | 29 | 12.2 | 21.7 | 0.00 | 0.00 | 0.00 | 13 | 994.0 |
| 20260501213050 | 91 | 5 | 11.3 | 21.7 | 0.00 | 0.00 | 0.00 | 13 | 994.2 |
| 20260501211557 | 90 | 30 | 12.2 | 20.9 | 0.00 | 0.00 | 0.00 | 13 | 994.5 |
| 20260501210048 | 90 | 350 | 9.6 | 16.5 | 0.00 | 0.00 | 0.00 | 14 | 994.8 |
| 20260501204559 | 90 | 328 | 9.6 | 17.4 | 0.00 | 0.00 | 0.00 | 13 | 994.9 |
| 20260501203047 | 90 | 26 | 11.3 | 17.4 | 0.00 | 0.00 | 0.00 | 13 | 995.0 |
| 20260501201546 | 90 | 341 | 9.6 | 16.5 | 0.00 | 0.00 | 0.00 | 14 | 995.1 |
| 20260501200046 | 89 | 334 | 10.4 | 17.4 | 0.00 | 0.00 | 0.00 | 13 | 995.2 |
| 20260501194547 | 89 | 36 | 11.3 | 19.1 | 0.00 | 0.00 | 0.00 | 13 | 995.3 |
| 20260501193042 | 88 | 5 | 12.2 | 19.1 | 0.00 | 0.00 | 0.00 | 13 | 995.5 |
| 20260501191543 | 88 | 333 | 11.3 | 21.7 | 0.00 | 0.00 | 0.00 | 12 | 995.7 |
| 20260501190043 | 87 | 336 | 12.2 | 20.9 | 0.00 | 0.00 | 0.00 | 14 | 995.9 |
| 20260501184545 | 87 | 24 | 13.9 | 21.7 | 0.00 | 0.00 | 0.00 | 13 | 996.0 |
| 20260501183038 | 87 | 59 | 13.0 | 21.7 | 0.00 | 0.00 | 0.00 | 14 | 996.1 |
| 20260501181533 | 86 | 42 | 11.3 | 20.9 | 0.00 | 0.00 | 0.00 | 15 | 996.2 |
| 20260501180032 | 85 | 34 | 13.0 | 21.7 | 0.00 | 0.00 | 0.00 | 14 | 996.5 |
| 20260501174530 | 84 | 340 | 14.8 | 20.9 | 0.00 | 0.00 | 0.00 | 14 | 996.5 |
| 20260501173028 | 84 | 346 | 16.5 | 21.7 | 0.00 | 0.00 | 0.00 | 14 | 996.5 |
| 20260501171537 | 84 | 346 | 14.8 | 21.7 | 0.00 | 0.00 | 0.00 | 15 | 996.6 |
| 20260501170025 | 83 | 19 | 13.9 | 26.1 | 0.00 | 0.00 | 0.00 | 16 | 996.6 |
| 20260501164524 | 82 | 348 | 13.0 | 23.5 | 0.00 | 0.00 | 0.00 | 18 | 996.5 |
| 20260501163021 | 82 | 24 | 16.5 | 25.2 | 0.00 | 0.00 | 0.00 | 17 | 996.6 |